Regional Weather Roundup
Issued by NWS

Home | Current Version | Previous Version | Graphics & Text | Print | Product List | Glossary On
Versions: 1 2 3 4 5 6 7 8 9 10 11 12 13 14 15 16 17 18 19 20 21 22 23 24 25 26 27 28 29 30 31 32 33 34 35 36 37 38 39 40 41 42 43 44 45 46 47 48 49 50
000
ASUS43 KFSD 222102
RWRSD

WEATHER ROUNDUP FOR SOUTH DAKOTA
NATIONAL WEATHER SERVICE SIOUX FALLS SD
400 PM CDT MON AUG 22 2016

NOTE: "FAIR" INDICATES FEW OR NO CLOUDS BELOW 12,000 FEET WITH NO
SIGNIFICANT WEATHER AND/OR OBSTRUCTIONS TO VISIBILITY.


SDZ001>005-009-010-012>017-222200-
NORTHWEST AND NORTH CENTRAL SOUTH DAKOTA

CITY           SKY/WX    TMP DP  RH WIND       PRES   REMARKS
BUFFALO          N/A     95  46  18 W13       29.59F
FAITH            N/A     99  50  19 S17       29.61F HX  96
MOBRIDGE       SUNNY     99  59  26 S13       29.57F HX  99
$$

SDZ012>016-024>037-041>051-057-063-072>074-222200-
SOUTHWEST AND SOUTH CENTRAL SOUTH DAKOTA

CITY           SKY/WX    TMP DP  RH WIND       PRES   REMARKS
RAPID CTY ARPT SUNNY    100  26   7 W16       29.66F
PIERRE         SUNNY     98  60  28 S21G30    29.60F HX  98
CUSTER         SUNNY     86  23  10 W13G25    29.90S
ELLSWORTH AFB  SUNNY     98  33  10 SW9         N/A
PHILIP         SUNNY    102  46  15 SW17G26   29.61F HX  98
PINE RIDGE     SUNNY     98  41  14 SW9G20    29.72F
WINNER         FAIR      94  61  33 S23G35    29.71F
$$

SDZ004>011-016>023-039-040-222200-
NORTHEAST SOUTH DAKOTA

CITY           SKY/WX    TMP DP  RH WIND       PRES   REMARKS
ABERDEEN       SUNNY     88  68  51 S20G28    29.66F
WATERTOWN      SUNNY     85  67  54 S18G31    29.75F
BROOKINGS      SUNNY     84  67  56 S23G33    29.78F
$$

SDZ017-020-022-023-036>040-048>070-222200-
SOUTHEAST SOUTH DAKOTA

CITY           SKY/WX    TMP DP  RH WIND       PRES   REMARKS
SIOUX FALLS    MOSUNNY   88  65  46 S24G43    29.82F
HURON          SUNNY     90  64  42 S20G30    29.70F
CHAMBERLAIN    SUNNY     92  66  42 S18G28    29.71S HX  95
MITCHELL       SUNNY     91  64  40 S20G29    29.74S
$$

ABBREVIATIONS USED IN REMARKS
   TC - TEMPERATURE IN CELSIUS
  WCI - WIND CHILL INDEX
   HX - HEAT INDEX
  VSB - VISIBILITY





USA.gov is the U.S. government's official web portal to all federal, state and local government web resources and services.